Date,TemperatureHighF,TemperatureAvgF,TemperatureLowF,DewpointHighF,DewpointAvgF,DewpointLowF,HumidityHigh,HumidityAvg,HumidityLow,PressureMaxIn,PressureMinIn,WindSpeedMaxMPH,WindSpeedAvgMPH,GustSpeedMaxMPH,PrecipitationSumIn
2014-1-6,0.5,0.5,0.5,-4.5,-4.5,-4.5,79,79,79,30.30,30.30,11,8,18,0.00
2014-3-12,40.3,40.3,40.3,37.6,35.1,33.3,90,82,76,29.68,29.50,12,8,20,0.17
2014-3-14,44.4,44.4,44.4,37.0,37.0,37.0,75,75,75,30.03,30.03,8,8,8,0.00
2014-3-17,52.3,45.3,42.4,43.9,37.4,33.7,76,74,71,30.03,29.74,6,2,8,0.87
2014-3-18,48.7,43.7,36.9,40.8,36.8,31.0,82,76,74,29.92,29.80,6,4,6,0.00
2014-3-19,60.3,52.2,47.5,51.2,44.6,41.3,82,75,72,30.00,29.77,17,8,24,0.87
2014-3-20,57.2,55.2,44.6,48.3,46.4,37.2,75,72,72,30.00,29.98,5,1,5,0.00
2014-3-21,50.7,46.5,38.5,42.7,38.8,31.6,76,74,73,30.03,29.98,8,5,11,0.00
2014-3-22,61.3,56.8,45.3,52.2,48.0,37.9,75,73,71,30.06,29.95,8,4,11,0.00
2014-3-23,52.9,45.6,42.1,44.5,38.2,35.1,76,75,73,30.24,30.15,8,3,14,0.00
2014-3-24,49.3,42.1,34.7,41.3,35.1,27.6,77,76,74,30.24,30.03,7,2,12,0.00
2014-3-25,31.5,31.5,31.5,27.5,26.7,25.4,85,82,78,30.03,29.98,8,5,8,0.00
2014-3-26,42.8,42.8,42.8,35.4,35.4,35.4,75,75,75,30.30,30.27,6,2,8,0.00
2014-3-27,39.7,39.0,39.0,32.8,32.1,32.1,76,76,76,30.30,30.00,10,6,15,0.00
2014-3-28,57.6,56.1,51.1,53.5,51.8,46.0,96,86,79,29.95,29.80,12,8,19,0.29
2014-3-29,44.8,42.5,32.7,42.6,41.4,25.7,98,96,75,30.15,29.80,7,4,14,0.38
2014-3-30,55.9,35.3,32.5,47.0,29.4,27.1,83,79,72,30.21,30.09,7,2,10,0.00
2014-3-31,67.8,62.2,56.7,57.7,52.7,47.7,72,71,70,29.98,29.95,5,3,6,0.00
2014-4-2,76.3,68.4,62.6,64.9,58.1,53.8,73,70,68,30.00,29.92,5,4,8,0.25
2014-4-3,63.5,62.1,58.3,61.6,59.4,57.2,99,92,80,29.83,29.77,10,5,10,1.59
2014-4-4,60.4,58.0,57.6,60.2,57.7,57.3,99,99,99,29.74,29.65,9,3,9,0.54
2014-4-22,75.0,64.9,60.6,65.0,55.1,51.5,72,71,68,29.95,29.80,8,3,12,0.00
2014-4-24,48.7,48.7,48.7,40.8,40.8,40.8,74,74,74,29.98,29.98,0,0,4,0.00
2014-4-25,60.3,58.8,58.1,59.7,57.9,55.9,99,97,90,29.74,29.62,9,6,15,0.29
2014-4-28,79.0,77.0,64.0,68.4,67.4,61.4,91,73,70,29.95,29.77,3,2,7,1.25
2014-4-29,75.2,61.2,53.4,63.9,55.9,47.6,99,84,68,29.83,29.56,10,4,22,0.33
2014-4-30,58.1,58.1,58.1,56.1,56.1,56.1,93,93,93,29.77,29.77,3,3,6,0.00
2014-5-1,53.1,53.1,53.1,44.6,44.6,44.6,73,73,73,29.95,29.95,3,3,5,0.00
2014-5-2,59.5,59.5,59.5,50.5,50.5,50.5,72,72,72,29.89,29.89,4,4,6,0.00
2014-5-3,64.6,59.5,41.7,54.6,50.7,38.1,87,73,70,29.95,29.89,12,5,15,0.00
2014-5-5,69.1,68.0,68.0,58.9,57.8,57.8,70,70,70,29.86,29.83,1,0,2,0.00
2014-5-6,68.0,68.0,68.0,59.4,58.4,57.8,74,72,70,29.89,29.86,2,1,3,0.00
2014-5-7,61.7,61.7,61.7,52.2,52.1,51.0,71,71,68,30.00,29.92,9,0,9,0.00
2014-5-8,68.4,67.1,66.2,58.2,56.9,56.1,70,70,70,30.00,29.98,1,0,3,0.00
2014-5-9,70.9,68.8,60.8,62.1,60.5,56.1,97,75,69,30.00,29.92,8,5,14,0.08
2014-5-10,75.7,65.8,63.1,65.7,63.4,62.6,98,93,71,30.03,29.95,9,4,9,0.84
2014-5-11,69.4,65.4,64.9,67.9,63.5,62.9,99,94,93,30.12,30.06,4,2,8,6.99
2014-5-12,66.7,66.7,66.7,66.5,66.5,66.5,99,99,99,30.12,30.12,0,0,2,0.00
2014-5-13,72.7,72.7,72.7,61.9,61.9,61.9,69,69,69,30.06,30.06,4,3,6,0.00
2014-5-14,69.1,68.2,62.2,66.3,64.8,62.0,99,89,87,30.00,29.86,3,0,4,1.46
2014-5-15,58.8,49.7,45.0,49.8,45.5,40.5,95,86,72,30.09,29.98,5,1,6,0.13
2014-5-16,48.4,47.8,46.4,47.0,45.9,44.8,97,93,92,30.03,29.98,3,2,4,0.00
2014-5-17,65.8,65.8,65.8,55.8,55.8,55.8,70,70,70,30.15,30.15,2,2,4,0.00
2014-5-18,43.5,43.5,43.5,37.1,37.1,37.1,78,78,78,30.24,30.24,2,2,2,0.00
2014-5-19,52.9,52.9,52.9,44.5,44.5,44.5,73,73,73,30.24,30.24,0,0,2,0.00
2014-5-20,74.7,74.7,74.7,64.6,64.6,64.6,71,71,71,30.09,30.09,7,7,8,0.00
2014-5-21,69.3,69.3,69.3,59.8,59.8,59.8,72,72,72,30.03,30.03,6,6,6,0.00
2014-5-22,69.3,34.2,32.7,59.1,29.1,25.7,87,82,70,30.15,30.06,7,5,8,0.00
2014-5-23,63.1,63.1,63.1,54.3,54.3,54.3,73,73,73,30.15,30.15,1,1,1,0.00
2014-5-25,66.0,65.3,62.2,58.6,56.5,52.7,78,73,71,30.15,30.12,2,0,2,0.00
2014-5-27,67.6,67.6,67.6,64.6,64.6,64.6,90,90,90,30.03,30.03,0,0,2,0.00
2014-5-28,68.5,66.9,65.5,66.1,63.5,60.3,99,89,75,30.03,29.98,2,1,6,0.17
2014-5-29,91.0,77.6,69.4,78.6,70.2,64.0,94,79,67,30.09,30.00,3,0,3,0.13
2014-5-31,73.4,71.1,70.9,62.6,61.1,60.2,72,71,69,30.18,30.09,0,0,0,0.00
2014-6-1,88.5,88.5,88.5,76.6,76.6,76.6,68,68,68,30.12,30.12,4,4,4,0.00
2014-6-2,72.5,71.4,68.9,62.9,62.3,61.4,77,73,71,30.15,30.09,4,3,4,0.00
2014-6-3,87.4,86.4,86.4,75.6,74.8,74.5,69,68,68,30.00,29.98,4,3,4,0.04
2014-6-4,68.9,68.9,68.9,68.6,68.6,68.6,99,99,99,29.92,29.92,4,4,4,0.00
2014-6-8,32.7,32.7,32.7,25.7,25.3,24.7,75,74,72,30.15,29.92,0,0,1,0.00
2014-6-9,80.8,76.1,73.2,69.7,65.7,63.2,71,70,69,29.95,29.89,2,0,2,0.00
2014-6-10,83.8,70.1,67.6,72.6,66.9,64.0,97,90,69,29.89,29.83,6,2,8,1.04
2014-6-11,78.6,75.0,67.8,68.5,65.8,63.7,96,73,70,29.83,29.80,7,6,7,0.13
2014-6-13,66.7,66.7,66.7,63.1,62.9,62.1,88,88,86,29.98,29.98,3,3,6,0.16
2014-6-14,59.4,59.4,59.4,50.3,50.3,50.3,72,72,72,30.12,30.12,1,1,5,0.00
2014-6-16,79.7,79.7,79.7,69.0,69.0,68.6,70,70,70,30.18,30.18,1,1,5,0.00
2014-6-20,90.7,81.9,79.2,78.2,72.8,68.5,87,75,67,30.06,29.92,1,1,4,0.00
2014-6-21,92.8,84.6,68.2,80.3,75.5,67.0,99,76,66,30.00,29.92,4,2,6,0.00
2014-6-22,88.7,88.7,88.7,76.3,76.3,76.3,67,67,67,29.95,29.95,4,4,6,0.00
2014-6-23,73.4,73.4,73.4,64.2,64.2,64.2,73,73,73,29.95,29.92,7,3,13,0.00
2014-6-25,70.2,70.2,70.2,69.9,69.9,69.9,99,99,99,30.00,30.00,4,4,6,0.00
2014-6-26,70.2,70.2,70.2,69.9,69.9,69.9,99,99,99,30.00,29.95,2,0,6,0.00
2014-6-27,70.2,70.2,70.2,69.9,69.9,69.9,99,99,99,30.06,30.06,6,5,6,0.00
2014-6-30,70.2,70.2,70.2,69.9,69.9,69.9,99,99,99,30.03,29.92,6,4,10,0.00
2014-7-1,70.2,70.2,70.2,69.9,69.9,69.9,99,99,99,29.95,29.77,8,3,13,0.54
2014-7-3,70.2,70.2,70.2,69.9,69.9,69.9,99,99,99,30.18,30.18,0,0,8,0.00
2014-7-8,70.2,70.2,70.2,69.9,69.9,69.9,99,99,99,29.95,29.86,9,3,17,0.21
2014-7-9,70.2,70.2,70.2,69.9,69.9,69.9,99,99,99,30.00,29.92,3,0,5,0.21
2014-7-11,32.7,32.7,32.7,23.7,23.2,22.6,69,68,66,30.18,30.09,4,2,6,0.00
2014-7-12,65.8,65.8,65.8,56.9,56.9,56.9,73,73,73,30.18,30.00,5,1,8,0.00
2014-7-13,65.8,65.8,65.8,56.9,56.9,56.9,73,73,73,30.09,29.92,9,3,17,0.17
2014-7-14,65.8,65.8,65.8,56.9,56.9,56.9,73,73,73,29.95,29.86,7,1,11,0.29
2014-7-15,65.8,65.8,65.8,56.9,56.9,56.9,73,73,73,30.00,29.89,5,2,10,0.00
2014-7-16,65.8,65.8,65.8,56.9,56.9,56.9,73,73,73,30.06,29.98,3,1,8,0.04
2014-7-17,65.8,65.8,65.8,56.9,56.9,56.9,73,73,73,30.12,30.03,3,1,6,0.04
2014-7-18,65.8,65.8,65.8,56.9,56.9,56.9,73,73,73,30.15,30.09,1,0,3,0.04
2014-7-19,65.8,65.8,65.8,56.9,56.9,56.9,73,73,73,30.09,30.03,3,1,6,0.00
2014-7-20,65.8,65.8,65.8,56.9,56.9,56.9,73,73,73,30.12,30.03,5,1,5,0.00
2014-7-21,65.8,65.8,65.8,56.9,56.9,56.9,73,73,73,30.15,30.03,3,1,6,0.00
2014-7-22,65.8,65.8,65.8,56.9,56.9,56.9,73,73,73,30.15,30.03,5,1,7,0.00
2014-7-23,65.8,65.8,65.8,56.9,56.9,56.9,73,73,73,30.15,29.95,6,2,10,0.00
2014-7-24,65.8,65.8,65.8,56.9,56.9,56.9,73,73,73,30.09,29.98,6,2,10,0.00
2014-7-25,65.8,65.8,65.8,56.9,56.9,56.9,73,73,73,30.12,29.92,3,1,8,0.00
2014-7-26,65.8,65.8,65.8,56.9,56.9,56.9,73,73,73,29.92,29.92,3,2,5,0.00
2014-7-27,81.5,67.4,65.8,76.2,58.6,56.9,84,73,70,29.95,29.83,6,2,13,2.08
2014-7-28,78.3,78.3,78.3,67.7,67.7,67.7,70,70,70,30.00,30.00,5,5,5,0.00
2014-7-31,67.6,67.6,67.6,58.3,58.3,58.3,72,72,72,30.06,30.06,0,0,2,0.00
2014-8-1,92.1,81.9,60.8,79.6,71.4,54.6,83,71,67,30.12,30.03,3,1,6,0.00
2014-8-2,81.1,81.1,81.1,70.0,70.0,70.0,69,69,69,30.12,30.12,3,2,5,0.00
2014-8-4,68.9,68.9,68.9,58.7,58.7,58.7,70,70,70,30.06,30.06,1,1,2,0.00
2014-8-7,86.5,78.7,75.9,74.7,67.9,65.4,71,70,68,30.00,29.92,2,0,4,0.00
2014-8-8,78.1,72.7,71.6,69.5,68.2,67.0,92,86,75,29.95,29.92,3,1,4,0.00
2014-8-9,90.7,77.1,72.0,78.2,70.2,66.8,96,80,67,30.00,29.92,5,1,7,0.46
2014-8-10,88.3,81.8,71.2,76.4,72.6,69.2,99,75,67,30.00,29.92,6,2,8,0.00
2014-8-11,72.5,72.4,71.4,71.6,70.8,66.7,99,95,85,29.89,29.89,4,1,6,0.04
2014-8-12,81.9,71.3,64.6,70.7,63.1,54.6,99,76,68,29.98,29.83,8,2,11,0.00
2014-8-15,61.9,61.9,61.9,52.4,52.4,52.4,71,71,71,30.06,30.06,0,0,1,0.00
2014-8-17,76.8,73.4,68.9,71.7,69.4,65.4,99,88,73,29.95,29.80,8,2,10,0.58
2014-8-18,79.9,73.4,68.7,71.4,69.2,67.3,99,87,72,29.92,29.80,3,1,6,0.13
2014-8-19,91.0,77.1,66.6,78.6,70.3,63.5,99,81,67,29.89,29.80,17,2,17,0.33
2014-8-20,74.3,71.1,66.6,73.4,70.7,66.2,99,99,95,29.95,29.86,3,1,4,0.33
2014-8-21,91.8,79.4,68.4,79.2,71.6,67.8,99,78,67,30.09,29.98,7,2,13,0.00
2014-8-22,82.0,79.2,72.9,73.2,71.6,69.1,91,78,68,30.06,30.00,6,3,8,0.00
2014-8-23,97.2,85.0,70.7,84.4,77.7,70.1,98,81,66,30.00,29.89,4,0,7,2.35
2014-8-24,71.4,71.4,71.4,70.8,70.8,70.8,98,98,98,30.00,30.00,2,2,3,0.08
2014-8-27,88.7,82.6,69.3,76.8,73.2,66.3,93,74,66,30.12,30.06,4,1,6,0.00
2014-8-28,96.8,80.7,69.6,83.6,72.4,65.8,97,77,66,30.09,29.98,3,1,8,0.00
2014-8-29,96.4,79.4,67.3,83.2,69.8,60.0,90,73,66,30.06,29.98,8,2,10,0.00
2014-8-30,88.9,75.9,67.1,76.9,68.3,60.4,89,78,68,30.06,30.00,7,2,11,0.09
2014-8-31,71.1,70.6,70.5,70.8,70.3,70.2,99,99,99,30.06,30.03,5,3,9,0.08
2014-9-2,82.9,74.5,71.4,71.7,69.2,67.0,98,84,69,30.03,29.92,1,0,3,0.04
2014-9-3,83.1,77.3,71.1,72.7,71.4,69.8,98,84,68,30.06,30.00,2,1,4,0.00
2014-9-10,83.7,77.3,70.7,72.4,69.1,67.2,90,76,69,29.98,29.80,10,5,18,0.00
2014-9-11,76.3,76.3,76.3,75.1,71.4,68.5,96,85,77,29.95,29.86,8,3,12,0.16
2014-9-13,71.6,57.6,47.5,60.9,50.5,43.9,90,78,69,30.30,30.15,6,1,9,0.00
2014-9-14,53.1,50.8,47.3,50.2,47.9,44.5,92,90,85,30.27,30.24,1,0,4,0.00
2014-9-15,73.4,73.4,73.4,62.2,62.2,62.2,68,68,68,30.06,30.06,0,0,1,0.00
2014-9-19,64.4,64.4,64.4,56.7,56.7,56.7,76,76,76,30.03,30.03,1,0,1,0.00
2014-9-22,54.0,49.6,46.9,45.5,42.1,40.5,82,75,73,30.24,30.21,1,0,2,0.00
2014-9-23,79.9,67.0,46.0,67.9,57.6,41.2,84,72,67,30.30,30.21,3,1,8,0.00
2014-9-24,87.1,65.9,47.5,75.2,56.7,41.9,84,72,67,30.30,30.21,3,1,6,0.00
2014-9-25,87.1,68.1,52.2,75.2,58.8,46.2,86,72,67,30.27,30.15,3,1,6,0.00
2014-9-26,90.3,70.8,58.6,77.9,61.1,50.4,84,72,67,30.21,30.12,3,1,11,0.00
2014-9-27,90.3,72.3,59.4,77.9,62.5,51.5,80,72,67,30.21,30.09,3,1,7,0.00
2014-9-28,86.0,71.0,61.9,74.2,62.2,52.4,85,74,68,30.24,30.03,5,1,7,0.00
2014-9-29,79.9,71.1,59.4,69.2,64.2,56.4,96,80,69,30.03,30.00,3,1,5,0.00
2014-10-1,88.0,88.0,88.0,76.1,76.1,76.1,68,68,68,29.95,29.95,0,0,1,0.00
2014-10-5,64.4,56.7,37.2,54.4,48.0,32.8,84,73,70,29.92,29.86,9,6,13,0.00
2014-10-6,70.5,63.7,54.3,59.9,55.1,49.3,84,74,69,29.83,29.71,23,4,30,0.00
2014-10-7,73.4,65.9,54.5,63.4,59.9,51.9,99,81,71,29.89,29.74,14,4,19,0.13
2014-10-10,56.5,53.7,51.6,56.2,53.4,51.3,99,99,99,30.00,29.92,6,2,8,0.00
2014-10-11,56.3,53.5,51.3,52.6,50.9,49.2,99,91,82,30.12,30.00,3,1,6,0.08
2014-10-12,53.6,53.3,52.2,52.2,50.7,46.9,95,91,78,30.03,30.00,3,1,4,0.08
2014-10-13,65.3,65.3,65.3,63.5,63.5,63.5,94,94,94,30.00,29.98,2,2,2,0.58
2014-10-14,65.8,49.5,32.7,59.4,44.0,25.7,99,82,73,30.15,29.62,13,7,20,1.22
2014-10-15,56.3,54.5,52.7,54.2,52.8,50.8,99,94,84,29.77,29.74,7,4,12,0.04
2014-10-16,53.8,52.8,51.4,52.4,51.9,51.2,99,97,94,29.89,29.77,5,2,6,0.00
2014-10-22,45.0,41.4,39.4,38.0,36.9,36.0,89,84,75,30.21,30.18,1,0,2,0.00
2014-10-23,68.4,57.5,38.7,58.2,50.1,35.9,94,77,70,30.24,30.09,4,1,6,0.00
2014-10-24,72.1,54.5,40.8,61.4,47.5,37.1,93,78,69,30.12,30.00,3,0,5,0.00
2014-10-25,77.7,64.4,45.5,67.2,56.2,42.2,94,75,68,30.00,29.92,6,2,9,0.00
2014-10-27,71.8,69.4,66.4,61.1,58.9,56.3,70,69,69,29.95,29.89,9,6,12,0.00
2014-10-28,69.4,66.0,64.8,62.5,59.6,54.7,89,80,70,30.00,29.92,10,6,19,0.08
2014-11-1,29.5,29.1,28.9,23.5,23.1,22.9,78,78,78,30.36,30.36,0,0,3,0.00
2014-11-2,35.2,31.0,25.5,28.8,24.6,20.4,83,77,74,30.42,30.33,3,1,6,0.00
2014-11-3,59.0,51.9,37.4,50.0,43.5,30.5,76,73,70,30.39,30.27,10,5,14,0.00
2014-11-5,54.5,33.7,32.7,51.6,30.3,25.7,90,87,75,30.18,30.12,2,2,6,0.12
2014-11-6,51.3,45.4,39.6,48.8,39.4,32.6,99,80,74,30.15,29.92,13,4,19,0.00
2014-11-7,56.3,50.9,38.7,47.8,42.8,31.7,76,74,72,30.18,30.03,6,2,8,0.00
2014-11-8,56.3,45.1,32.4,47.4,38.1,28.0,85,76,72,30.03,29.86,12,3,15,0.00
2014-11-9,59.2,45.6,31.5,50.2,38.1,25.4,85,75,72,30.12,29.92,7,2,11,0.00
2014-11-14,24.6,23.3,21.0,18.4,17.1,14.9,77,77,77,30.36,30.30,2,0,4,0.00
2014-11-15,48.7,35.0,21.0,40.8,28.3,14.9,77,76,74,30.39,30.12,5,1,6,0.00
2014-11-16,42.3,37.1,31.3,35.2,32.4,28.6,96,83,76,30.15,29.80,6,2,9,0.37
2014-11-17,33.3,28.4,25.7,29.9,23.8,19.2,96,83,75,29.95,29.80,8,4,16,0.37
2014-11-19,49.6,49.6,49.6,41.7,41.7,41.7,74,74,74,29.92,29.92,18,16,24,0.13
2014-11-20,38.5,28.1,19.2,31.6,21.7,13.5,80,76,74,30.33,30.12,8,2,14,0.00
2014-11-21,48.2,35.5,17.6,40.3,28.8,11.9,80,76,74,30.42,30.27,3,2,8,0.00
2014-11-22,52.0,48.8,41.4,43.6,40.8,34.4,76,74,73,30.27,30.24,13,6,17,0.00
2014-11-23,60.3,54.9,51.1,51.2,47.1,43.1,85,75,72,29.95,29.56,6,2,9,0.04
2014-11-24,60.6,59.1,46.0,54.1,50.8,40.2,80,74,72,29.77,29.36,24,15,33,0.86
2014-11-30,30.7,30.7,30.7,26.2,26.2,26.2,83,83,83,30.27,30.27,0,0,6,0.00
2014-12-1,32.7,32.7,32.7,30.7,29.9,29.6,92,89,88,30.42,30.00,6,2,9,0.00
2014-12-4,39.0,39.0,39.0,99.9,40.2,38.0,96,93,96,30.18,30.15,1,0,2,0.25
2014-12-5,49.3,49.1,46.9,99.9,49.4,45.9,96,93,96,30.18,30.15,3,0,3,0.33
2014-12-7,48.4,39.3,33.3,40.5,32.5,27.5,80,76,74,30.39,30.24,5,2,7,0.00
2014-12-8,50.2,44.2,33.3,42.2,37.2,27.8,85,76,74,30.24,30.12,9,4,15,0.00
2014-12-9,48.4,43.1,36.7,40.5,37.5,31.9,96,81,74,30.24,30.06,6,2,8,0.00
2014-12-10,39.2,38.1,36.3,32.3,31.4,29.8,79,77,76,30.27,30.21,3,1,5,0.00
2014-12-12,38.7,38.3,37.9,32.4,31.7,31.0,79,77,76,30.30,30.24,2,1,3,0.00
2014-12-13,48.4,42.5,37.9,40.5,35.8,32.0,81,77,74,30.30,30.15,3,1,5,0.00
2014-12-14,42.6,42.2,41.5,37.8,36.6,35.4,83,80,78,30.18,30.15,2,1,3,0.00
2014-12-16,54.0,50.7,42.8,48.9,45.3,36.4,83,82,78,30.03,29.71,0,0,8,0.00
2014-12-18,32.2,31.8,29.1,26.1,25.8,23.7,80,78,78,30.24,30.21,2,1,4,0.00
2014-12-19,28.4,28.4,28.4,22.4,22.4,22.4,78,78,78,30.18,30.18,0,0,2,0.00
2014-12-20,32.7,30.7,27.0,26.6,24.5,21.0,78,78,77,30.24,30.18,3,1,4,0.00
2014-12-21,45.0,39.1,24.1,37.5,33.1,21.5,94,79,74,30.27,30.12,6,3,6,0.00
2014-12-22,53.8,42.6,35.6,50.3,34.7,27.8,99,73,73,29.95,29.68,4,3,6,0.38
2014-12-24,54.5,54.5,54.5,53.9,53.9,53.9,98,98,98,29.53,29.47,14,0,14,0.09
2014-12-26,57.9,46.1,30.9,48.9,39.3,29.4,99,78,72,30.24,30.12,10,4,14,0.21
2014-12-27,48.0,44.5,38.3,46.7,38.6,34.2,99,80,74,30.21,29.77,7,4,11,0.17
2014-12-28,37.0,37.0,37.0,36.8,36.8,36.8,99,99,99,30.12,30.09,2,1,4,0.04
2014-12-29,35.1,35.1,35.1,31.0,31.0,31.0,85,85,85,30.24,30.24,3,3,4,0.00
2014-12-30,42.1,40.4,37.0,35.1,33.4,30.5,77,76,75,30.54,30.39,7,5,8,0.00
2014-12-31,34.5,27.0,17.1,27.4,20.5,11.4,78,76,75,30.54,30.36,7,3,9,0.00
2015-1-1,24.1,24.1,24.1,17.6,17.6,17.6,76,76,76,30.24,30.24,6,5,8,0.00